Regional Weather Roundup
Issued by NWS State College, PA

Home | Current Version | Previous Version | Text Only | Print | Product List | Glossary On
Versions: 1 2 3 4 5 6 7 8 9 10 11 12 13 14 15 16 17 18 19 20 21 22 23 24 25 26 27 28 29 30 31 32 33 34 35 36 37 38 39 40 41 42 43 44 45 46 47 48 49 50
000
ASUS41 KCTP 292310
RWRCTP

REGIONAL WEATHER ROUNDUP
NATIONAL WEATHER SERVICE STATE COLLEGE PA
700 PM EDT MON JUN 29 2015

Note: "fair" indicates few or no clouds below 12,000 feet with no
significant weather and/or obstructions to visibility.

* = STATION THAT DOES NOT REPORT PRECIPITATION /E.G. RAIN...SNOW...ETC/
    THUNDER OR FOG.

PAZ002>004-007>009-013>016-020>023-029>032-300000-
WESTERN PENNSYLVANIA

CITY           SKY/WX    TMP DP  RH WIND       PRES   REMARKS
ERIE           PTSUNNY   73  55  53 CALM      29.88F
MEADVILLE      CLOUDY    69  53  56 VRB5      29.92R
FRANKLIN*      CLOUDY    64  57  77 CALM      29.94S
NEW CASTLE     MOCLDY    68  62  80 CALM      29.92F
BEAVER COUNTY  CLOUDY    64  61  88 CALM      29.90F
BUTLER*        PTSUNNY   64  61  88 NE5       29.92F
PITTSBURGH INT CLOUDY    66  61  84 CALM      29.89F
PITTSBURGH     CLOUDY    66  58  75 NE5       29.89S
INDIANA*       CLOUDY    70  59  68 CALM      29.96R
LATROBE        CLOUDY    70  63  78 CALM      29.92S
WASHINGTON CO* NOT AVBL
$$

PAZ004>006-010>012-017>019-024>028-033>037-041-042-045-046-049>053-300000-
CENTRAL PENNSYLVANIA

CITY           SKY/WX    TMP DP  RH WIND       PRES   REMARKS
BRADFORD       LGT RAIN  62  58  86 S3        29.97R
DUBOIS         CLOUDY    68  59  73 E6        29.94S
CLEARFIELD     CLOUDY    65  57  75 E8        29.95R
JOHNSTOWN      CLOUDY    67  55  65 NE3       29.95S
ALTOONA        CLOUDY    72  56  57 S5        29.93F
STATE COLLEGE  CLOUDY    68  57  68 VRB5      29.94R
WILLIAMSPORT   CLOUDY    74  58  57 W8        29.88S
SELINSGROVE    MOSUNNY   78  59  51 CALM      29.90S
FT INDIANTOWN  NOT AVBL
CAPITAL CITY   PTSUNNY   76  57  51 S6        29.90S
HARRISBURG     MOSUNNY   78  57  48 SW5       29.90S
YORK           SUNNY     78  57  48 VRB6      29.92S
$$

PAZ038>040-043-044-047-048-054-055-060>062-067>071-300000-
EASTERN PENNSYLVANIA

CITY           SKY/WX    TMP DP  RH WIND       PRES   REMARKS
SCRANTON       PTSUNNY   76  55  48 W10       29.90S
MOUNT POCONO   MOSUNNY   71  54  54 W8        29.95S
ALLENTOWN      SUNNY     77  58  51 W10       29.91S
QUAKERTOWN*    CLEAR     75  57  53 SW6       29.93S
READING        SUNNY     78  56  46 SW9       29.90S
LANCASTER      SUNNY     76  56  49 SW9       29.91S
COATESVILLE    CLEAR     75  57  53 SW5       29.95S
POTTSTOWN      MOSUNNY   77  57  50 SW5       29.93S
BLUE BELL      SUNNY     79  57  47 W3        29.92S
DOYLESTOWN     SUNNY     76  55  48 SW6       29.92R
WILLOW GROVE   NOT AVBL
NORTH PHILA    SUNNY     80  52  37 SW8       29.93S
PHILADELPHIA   MOSUNNY   81  54  39 SW7       29.92S
$$



USA.gov is the U.S. government's official web portal to all federal, state and local government web resources and services.